星链-3504 (STARLINK-3504 )

导读

STARLINK-3504是美国太空探索技术公司星链星座的成员,于2022年3月3日发射升空,属于星链项目的第二代组网卫星,主要为全球提供低延迟、高速率的卫星互联网服务,运行在近地轨道,依托星链庞大星座组网,可覆盖偏远地区等地面网络难覆盖区域,也兼具民用与部分特殊场景应用功能。

基本信息
目录编号:
51881
目录名称:
STARLINK-3504
国际标识:
2022-022AF
轨道中心:
EARTH
卫星名称:
星链-3504
卫星全名:
星链-3504 (STARLINK-3504 )
卫星状态:
在轨 (已飞行1567 天)
发射日期:
2022-03-03 UTC
国别 :
美国 (US)
星等 :
--
轨道信息
数据来源 国际轨道数据
星历时间: 2026-06-17T19:09:27+0800
6小时前
查看轨道信息
半长轴: 6917.945km
偏心率: 0.0001184
轨道倾角: 53.161°
近地点辐角 94.607°
升交点赤经 271.114°
平近点角 265.506°
近地点: 538.988km
远地点: 540.628km
周期: 95.439分钟
每日圈数: 15.08819
详细信息
固有亮度:
5
最大亮度:
2.5
卫星平台:
Starlink v1.5
覆盖范围:
全球
运营商:
太空探索技术公司
运营商所在国:
美国
制造商(研发单位):
太空探索技术公司
制造商所在国:
美国
使用方式:
暂无
卫星简介
星链(Starlink)计划是由太空探索技术公司(SpaceX)提出的一个巨型低轨卫星互联网星座项目,计划在2019年至2024年间在太空搭建由约1.2万颗卫星组成的“星链”网络,其中1584颗将部署在地球上空550千米处的近地轨道,并从2020年开始工作。该卫星仍在工作。
2D轨道图
3D轨道图
轨道高度分析图
轨道倾角分析图
轨道综合分析图
查看轨道综合分析图